Weather History for KELO - July, 2013

Change the Weather History Date:

Tuesday, July 9, 2013

  Actual Average Record
Temperature  
Mean Temperature 64 °F -  
Max Temperature 71 °F 74 °F 87 °F (2005)
Min Temperature 57 °F 52 °F 42 °F (1996)
Degree Days  
Heating Degree Days 1    
Growing Degree Days 14 (Base 50)    
Moisture  
Dew Point 61 °F    
Average Humidity 87    
Maximum Humidity 100    
Minimum Humidity 73    
Precipitation  
Precipitation 0.07 in - - ()
Sea Level Pressure  
Sea Level Pressure 29.86 in    
Wind  
Wind Speed 3 mph (WSW)    
Max Wind Speed 15 mph    
Max Gust Speed 24 mph    
Visibility 9 miles    
Events Rain    
Averages and records for this station are not official NWS values.
T = Trace of Precipitation, MM = Missing Value Source: NWS Daily Summary

Daily Weather History Graph

Daily Weather History Graph

Search for Another Location

Airport or City:

Trip Planner

Search our weather history database for the weather conditions in past years. The results will help you decide how hot, cold, wet, or windy it might be!

Date:

Astronomy

Jul. 09, 2013 Rise Set
Actual Time 5:18 AM CDT 9:05 PM CDT
Civil Twilight 4:38 AM CDT 9:45 PM CDT
Nautical Twilight 3:44 AM CDT 10:39 PM CDT
Astronomical Twilight 2:24 AM CDT 11:58 PM CDT
Moon 6:53 AM CDT (7/9) 9:30 PM CDT (7/9)
Length of Visible Light 17h 06m
Length of Day
15h 47m
New Moon, 2% of the Moon is Illuminated
Jul 9
New Moon
Jul 15
First Quarter
Jul 22
Full
Jul 29
Last Quarter
Aug 6
New

Hourly Weather History & Observations

Time (CDT) Temp. Dew Point Humidity Pressure Visibility Wind Dir Wind Speed Gust Speed Precip Events Conditions
12:12 AM 64.4 °F 60.8 °F 88% 29.99 in 10.0 mi SSW 3.5 mph - N/A   Clear
12:33 AM 64.4 °F 60.8 °F 88% 30.00 in 10.0 mi South 3.5 mph - N/A   Clear
12:53 AM 62.6 °F 60.8 °F 94% 29.99 in 10.0 mi SSE 3.5 mph - N/A   Clear
1:12 AM 62.6 °F 60.8 °F 94% 29.99 in 10.0 mi South 3.5 mph - N/A   Clear
1:33 AM 62.6 °F 60.8 °F 94% 29.99 in 10.0 mi Calm Calm - N/A   Clear
1:53 AM 62.6 °F 60.8 °F 94% 29.98 in 10.0 mi Calm Calm - N/A   Clear
2:12 AM 60.8 °F 59.0 °F 94% 29.97 in 7.0 mi Calm Calm - N/A   Clear
2:33 AM 60.8 °F 57.2 °F 88% 29.96 in 7.0 mi SSE 3.5 mph - N/A   Clear
2:53 AM 60.8 °F 59.0 °F 94% 29.95 in 7.0 mi Calm Calm - N/A   Clear
3:13 AM 60.8 °F 57.2 °F 88% 29.94 in 7.0 mi Calm Calm - N/A   Clear
3:33 AM 59.0 °F 57.2 °F 94% 29.94 in 7.0 mi Calm Calm - N/A   Clear
3:53 AM 59.0 °F 57.2 °F 94% 29.94 in 7.0 mi Calm Calm - N/A   Clear
4:12 AM 59.0 °F 57.2 °F 94% 29.94 in 5.0 mi Calm Calm - N/A   Clear
4:33 AM 57.2 °F 57.2 °F 100% 29.94 in 7.0 mi Calm Calm - N/A   Clear
4:53 AM 57.2 °F 55.4 °F 94% 29.93 in 7.0 mi Calm Calm - N/A   Clear
5:12 AM 57.2 °F 55.4 °F 94% 29.93 in 7.0 mi Calm Calm - N/A   Clear
5:33 AM 57.2 °F 55.4 °F 94% 29.93 in 5.0 mi Calm Calm - N/A   Clear
5:53 AM 57.2 °F 55.4 °F 94% 29.93 in 7.0 mi SE 3.5 mph - N/A   Clear
6:12 AM 59.0 °F 57.2 °F 94% 29.92 in 7.0 mi Calm Calm - N/A   Clear
6:33 AM 60.8 °F 59.0 °F 94% 29.91 in 10.0 mi SE 3.5 mph - N/A   Clear
6:52 AM 62.6 °F 60.8 °F 94% 29.90 in 10.0 mi SSE 3.5 mph - N/A   Clear
7:13 AM 64.4 °F 60.8 °F 88% 29.89 in 10.0 mi SSE 4.6 mph - N/A   Clear
7:33 AM 64.4 °F 60.8 °F 88% 29.89 in 10.0 mi South 4.6 mph - N/A   Clear
7:53 AM 66.2 °F 60.8 °F 83% 29.88 in 10.0 mi South 5.8 mph - N/A   Clear
8:13 AM 66.2 °F 60.8 °F 83% 29.87 in 10.0 mi South 4.6 mph - N/A   Clear
8:32 AM 66.2 °F 60.8 °F 83% 29.87 in 10.0 mi South 8.1 mph - N/A   Clear
8:53 AM 66.2 °F 62.6 °F 88% 29.86 in 10.0 mi South 4.6 mph - N/A   Clear
9:13 AM 66.2 °F 62.6 °F 88% 29.85 in 10.0 mi South 4.6 mph - N/A   Clear
9:32 AM 68.0 °F 62.6 °F 83% 29.85 in 10.0 mi Calm Calm - N/A   Clear
9:53 AM 69.8 °F 62.6 °F 78% 29.83 in 10.0 mi SSE 3.5 mph - N/A   Clear
10:13 AM 69.8 °F 62.6 °F 78% 29.84 in 10.0 mi Calm Calm - N/A   Clear
10:32 AM 71.6 °F 62.6 °F 73% 29.83 in 10.0 mi SSE 5.8 mph - N/A   Clear
10:53 AM 71.6 °F 62.6 °F 73% 29.84 in 10.0 mi SSE 6.9 mph - N/A   Scattered Clouds
11:13 AM 71.6 °F 62.6 °F 73% 29.84 in 10.0 mi SSE 4.6 mph - N/A   Scattered Clouds
11:32 AM 71.6 °F 62.6 °F 73% 29.84 in 10.0 mi SSE 3.5 mph - N/A   Mostly Cloudy
11:53 AM 71.6 °F 64.4 °F 78% 29.86 in 10.0 mi SW 4.6 mph - N/A   Overcast
12:12 PM 69.8 °F 64.4 °F 83% 29.85 in 10.0 mi Calm Calm - N/A Rain Rain
12:33 PM 69.8 °F 64.4 °F 83% 29.83 in 10.0 mi Calm Calm - N/A Rain Light Rain
12:53 PM 69.8 °F 66.2 °F 88% 29.82 in 10.0 mi South 4.6 mph - N/A Rain Light Rain
1:13 PM 69.8 °F 66.2 °F 88% 29.82 in 7.0 mi Calm Calm - 0.01 in Rain Light Rain
1:33 PM 71.6 °F 66.2 °F 83% 29.81 in 10.0 mi SW 5.8 mph - 0.02 in Rain Light Rain
1:53 PM 71.6 °F 66.2 °F 83% 29.81 in 7.0 mi SSW 8.1 mph - 0.02 in Rain Light Rain
2:12 PM 69.8 °F 64.4 °F 83% 29.81 in 10.0 mi WSW 3.5 mph - N/A Rain Light Rain
2:33 PM 69.8 °F 66.2 °F 88% 29.81 in 7.0 mi WSW 3.5 mph - N/A Rain Light Rain
2:53 PM 69.8 °F 66.2 °F 88% 29.80 in 7.0 mi West 5.8 mph - 0.01 in Rain Light Rain
3:12 PM 69.8 °F 66.2 °F 88% 29.80 in 10.0 mi WNW 4.6 mph - 0.01 in Rain Light Rain
3:33 PM 69.8 °F 64.4 °F 83% 29.80 in 10.0 mi NW 5.8 mph - 0.01 in   Scattered Clouds
3:53 PM 71.6 °F 64.4 °F 78% 29.79 in 10.0 mi WNW 5.8 mph - 0.01 in   Scattered Clouds
4:12 PM 71.6 °F 64.4 °F 78% 29.78 in 10.0 mi WNW 6.9 mph - N/A   Scattered Clouds
4:33 PM 71.6 °F 64.4 °F 78% 29.79 in 10.0 mi WNW 3.5 mph - N/A   Scattered Clouds
4:53 PM 71.6 °F 64.4 °F 78% 29.78 in 10.0 mi NNW 5.8 mph - N/A   Mostly Cloudy
5:12 PM 71.6 °F 64.4 °F 78% 29.78 in 10.0 mi NW 6.9 mph - N/A   Overcast
5:33 PM 69.8 °F 64.4 °F 83% 29.78 in 7.0 mi Calm Calm - N/A Rain Rain
5:53 PM 69.8 °F 64.4 °F 83% 29.78 in 10.0 mi NW 3.5 mph - N/A   Overcast
6:12 PM 69.8 °F 64.4 °F 83% 29.78 in 10.0 mi Calm Calm - N/A   Overcast
6:33 PM 69.8 °F 64.4 °F 83% 29.78 in 10.0 mi NW 6.9 mph - N/A   Overcast
6:53 PM 68.0 °F 62.6 °F 83% 29.79 in 7.0 mi WNW 10.4 mph - N/A Rain Light Rain
7:12 PM 66.2 °F 64.4 °F 94% 29.80 in 10.0 mi WNW 5.8 mph - 0.02 in Rain Light Rain
7:33 PM 66.2 °F 62.6 °F 88% 29.80 in 7.0 mi NW 15.0 mph 24.2 mph 0.03 in Rain Rain
7:52 PM 64.4 °F 60.8 °F 88% 29.81 in 10.0 mi NW 8.1 mph 18.4 mph 0.03 in   Overcast
8:13 PM 64.4 °F 60.8 °F 88% 29.82 in 10.0 mi NW 5.8 mph 18.4 mph N/A   Mostly Cloudy
8:33 PM 62.6 °F 60.8 °F 94% 29.82 in 10.0 mi NW 8.1 mph - N/A   Mostly Cloudy
8:52 PM 62.6 °F 60.8 °F 94% 29.83 in 10.0 mi NW 10.4 mph 17.3 mph N/A   Mostly Cloudy
9:13 PM 62.6 °F 57.2 °F 82% 29.84 in 10.0 mi NW 9.2 mph 19.6 mph N/A   Overcast
9:33 PM 60.8 °F 57.2 °F 88% 29.85 in 10.0 mi NW 6.9 mph - N/A   Scattered Clouds
9:52 PM 60.8 °F 57.2 °F 88% 29.86 in 10.0 mi NW 6.9 mph - N/A   Scattered Clouds
10:13 PM 60.8 °F 55.4 °F 82% 29.86 in 10.0 mi NW 5.8 mph - N/A   Clear
10:33 PM 59.0 °F 55.4 °F 88% 29.86 in 10.0 mi NW 3.5 mph - N/A   Clear
10:52 PM 59.0 °F 55.4 °F 88% 29.86 in 10.0 mi Calm Calm - N/A   Scattered Clouds
11:13 PM 59.0 °F 55.4 °F 88% 29.86 in 10.0 mi Calm Calm - N/A   Overcast
11:33 PM 59.0 °F 57.2 °F 94% 29.86 in 10.0 mi Calm Calm - N/A   Overcast
11:52 PM 59.0 °F 57.2 °F 94% 29.86 in 10.0 mi West 3.5 mph - N/A   Overcast